date,time,SUV Intensity [MED/Hr],UV Index,Daily total [MED],Since Last [MED]
26/01/2022,00:03:55,-0.000,0.0,0.0,0.0
26/01/2022,00:05:03,-0.001,0.0,0.0,0.0
26/01/2022,00:05:55,0.000,0.0,0.0,0.0
26/01/2022,00:06:54,-0.000,0.0,0.0,0.0
26/01/2022,00:07:54,0.001,0.0,0.0,0.0
26/01/2022,00:08:54,-0.000,0.0,0.0,0.0
26/01/2022,00:09:55,0.000,0.0,0.0,0.0
26/01/2022,00:10:54,0.001,0.0,0.0,0.0
26/01/2022,00:11:54,-0.000,0.0,0.0,0.0
26/01/2022,00:12:54,0.000,0.0,0.0,0.0
26/01/2022,00:13:54,0.000,0.0,0.0,0.0
26/01/2022,00:14:54,0.000,0.0,0.0,0.0
26/01/2022,00:15:55,-0.001,0.0,0.0,0.0
26/01/2022,00:16:54,0.000,0.0,0.0,0.0
26/01/2022,00:17:55,-0.000,0.0,0.0,0.0
26/01/2022,00:18:54,0.001,0.0,0.0,0.0
26/01/2022,00:19:55,0.000,0.0,0.0,0.0
26/01/2022,00:20:55,0.000,0.0,0.0,0.0
26/01/2022,00:21:54,0.000,0.0,0.0,0.0
26/01/2022,00:22:55,0.000,0.0,0.0,0.0
26/01/2022,00:23:54,-0.001,0.0,0.0,0.0
26/01/2022,00:24:54,-0.001,0.0,0.0,0.0
26/01/2022,00:25:54,0.000,0.0,0.0,0.0
26/01/2022,00:26:54,0.000,0.0,0.0,0.0
26/01/2022,00:27:54,0.000,0.0,0.0,0.0
26/01/2022,00:28:54,0.000,0.0,0.0,0.0
26/01/2022,00:29:54,0.000,0.0,0.0,0.0
26/01/2022,00:30:55,-0.001,0.0,0.0,0.0
26/01/2022,00:31:54,0.000,0.0,0.0,0.0
26/01/2022,00:32:55,0.001,0.0,0.0,0.0
26/01/2022,00:33:54,0.000,0.0,0.0,0.0
26/01/2022,00:34:54,-0.000,0.0,0.0,0.0
26/01/2022,00:35:54,0.000,0.0,0.0,0.0
26/01/2022,00:36:54,0.000,0.0,0.0,0.0
26/01/2022,00:37:54,-0.000,0.0,0.0,0.0
26/01/2022,00:39:03,0.000,0.0,0.0,0.0
26/01/2022,00:39:55,0.000,0.0,0.0,0.0
26/01/2022,00:40:54,0.001,0.0,0.0,0.0
26/01/2022,00:42:03,0.000,0.0,0.0,0.0
26/01/2022,00:42:54,0.001,0.0,0.0,0.0
26/01/2022,00:43:55,0.000,0.0,0.0,0.0
26/01/2022,00:44:54,0.001,0.0,0.0,0.0
26/01/2022,00:45:55,0.000,0.0,0.0,0.0
26/01/2022,00:46:55,0.001,0.0,0.0,0.0
26/01/2022,00:47:54,-0.001,0.0,0.0,0.0
26/01/2022,00:48:54,-0.000,0.0,0.0,0.0
26/01/2022,00:49:54,-0.000,0.0,0.0,0.0
26/01/2022,00:50:54,0.000,0.0,0.0,0.0
26/01/2022,00:52:03,0.000,0.0,0.0,0.0
26/01/2022,00:52:54,0.000,0.0,0.0,0.0
26/01/2022,00:53:55,0.000,0.0,0.0,0.0
26/01/2022,00:54:54,0.000,0.0,0.0,0.0
26/01/2022,00:55:55,0.001,0.0,0.0,0.0
26/01/2022,00:56:54,0.000,0.0,0.0,0.0
26/01/2022,00:57:54,0.000,0.0,0.0,0.0
26/01/2022,00:59:04,0.001,0.0,0.0,0.0
26/01/2022,00:59:54,0.000,0.0,0.0,0.0
26/01/2022,01:00:56,0.000,0.0,0.0,0.0
26/01/2022,01:02:02,0.000,0.0,0.0,0.0
26/01/2022,01:02:54,0.000,0.0,0.0,0.0
26/01/2022,01:03:55,-0.001,0.0,0.0,0.0
26/01/2022,01:04:54,0.000,0.0,0.0,0.0
26/01/2022,01:05:54,0.000,0.0,0.0,0.0
26/01/2022,01:06:55,-0.000,0.0,0.0,0.0
26/01/2022,01:07:54,-0.000,0.0,0.0,0.0
26/01/2022,01:08:55,0.001,0.0,0.0,0.0
26/01/2022,01:09:54,-0.001,0.0,0.0,0.0
26/01/2022,01:10:54,0.000,0.0,0.0,0.0
26/01/2022,01:11:54,0.000,0.0,0.0,0.0
26/01/2022,01:13:03,0.000,0.0,0.0,0.0
26/01/2022,01:13:55,0.000,0.0,0.0,0.0
26/01/2022,01:14:55,0.001,0.0,0.0,0.0
26/01/2022,01:15:54,0.000,0.0,0.0,0.0
26/01/2022,01:16:54,-0.001,0.0,0.0,0.0
26/01/2022,01:17:56,0.000,0.0,0.0,0.0
26/01/2022,01:18:54,-0.000,0.0,0.0,0.0
26/01/2022,01:19:54,-0.001,0.0,0.0,0.0
26/01/2022,01:20:54,0.000,0.0,0.0,0.0
26/01/2022,01:21:54,0.000,0.0,0.0,0.0
26/01/2022,01:23:03,-0.001,0.0,0.0,0.0
26/01/2022,01:23:55,0.001,0.0,0.0,0.0
26/01/2022,01:24:55,0.000,0.0,0.0,0.0
26/01/2022,01:25:55,0.000,0.0,0.0,0.0
26/01/2022,01:26:55,-0.000,0.0,0.0,0.0
26/01/2022,01:27:54,0.000,0.0,0.0,0.0
26/01/2022,01:28:54,0.000,0.0,0.0,0.0
26/01/2022,01:29:55,-0.001,0.0,0.0,0.0
26/01/2022,01:30:55,0.000,0.0,0.0,0.0
26/01/2022,01:31:55,0.000,0.0,0.0,0.0
26/01/2022,01:33:03,0.001,0.0,0.0,0.0
26/01/2022,01:33:54,-0.001,0.0,0.0,0.0
26/01/2022,01:35:47,0.000,0.0,0.0,0.0
26/01/2022,01:36:54,0.000,0.0,0.0,0.0
26/01/2022,01:37:55,0.000,0.0,0.0,0.0
26/01/2022,01:38:55,0.000,0.0,0.0,0.0
26/01/2022,01:39:54,-0.000,0.0,0.0,0.0
26/01/2022,01:40:54,0.000,0.0,0.0,0.0
26/01/2022,01:42:03,0.000,0.0,0.0,0.0
26/01/2022,01:42:54,-0.001,0.0,0.0,0.0
26/01/2022,01:43:54,0.000,0.0,0.0,0.0
26/01/2022,01:44:55,0.000,0.0,0.0,0.0
26/01/2022,01:45:54,0.000,0.0,0.0,0.0
26/01/2022,01:47:19,0.000,0.0,0.0,0.0
26/01/2022,01:48:55,0.000,0.0,0.0,0.0
26/01/2022,01:49:55,0.001,0.0,0.0,0.0
26/01/2022,01:50:54,0.000,0.0,0.0,0.0
26/01/2022,01:51:54,0.000,0.0,0.0,0.0
26/01/2022,01:52:54,-0.000,0.0,0.0,0.0
26/01/2022,01:53:54,0.000,0.0,0.0,0.0
26/01/2022,01:54:56,0.000,0.0,0.0,0.0
26/01/2022,01:55:54,-0.000,0.0,0.0,0.0
26/01/2022,01:57:03,0.000,0.0,0.0,0.0
26/01/2022,01:57:54,0.000,0.0,0.0,0.0
26/01/2022,01:58:55,-0.001,0.0,0.0,0.0
26/01/2022,01:59:54,-0.000,0.0,0.0,0.0
26/01/2022,02:00:54,0.000,0.0,0.0,0.0
26/01/2022,02:01:54,-0.000,0.0,0.0,0.0
26/01/2022,02:02:55,-0.001,0.0,0.0,0.0
26/01/2022,02:03:54,0.000,0.0,0.0,0.0
26/01/2022,02:04:55,0.001,0.0,0.0,0.0
26/01/2022,02:05:55,-0.001,0.0,0.0,0.0
26/01/2022,02:07:03,-0.000,0.0,0.0,0.0
26/01/2022,02:07:54,0.000,0.0,0.0,0.0
26/01/2022,02:08:55,-0.000,0.0,0.0,0.0
26/01/2022,02:10:04,0.000,0.0,0.0,0.0
26/01/2022,02:10:55,0.000,0.0,0.0,0.0
26/01/2022,02:11:55,-0.000,0.0,0.0,0.0
26/01/2022,02:13:02,-0.000,0.0,0.0,0.0
26/01/2022,02:13:54,-0.001,0.0,0.0,0.0
26/01/2022,02:14:55,0.000,0.0,0.0,0.0
26/01/2022,02:15:54,-0.000,0.0,0.0,0.0
26/01/2022,02:16:54,0.001,0.0,0.0,0.0
26/01/2022,02:17:54,0.000,0.0,0.0,0.0
26/01/2022,02:18:55,-0.000,0.0,0.0,0.0
26/01/2022,02:19:54,-0.000,0.0,0.0,0.0
26/01/2022,02:21:04,-0.001,0.0,0.0,0.0
26/01/2022,02:21:53,-0.000,0.0,0.0,0.0
26/01/2022,02:22:54,0.000,0.0,0.0,0.0
26/01/2022,02:23:55,-0.000,0.0,0.0,0.0
26/01/2022,02:24:54,0.000,0.0,0.0,0.0
26/01/2022,02:25:55,0.000,0.0,0.0,0.0
26/01/2022,02:26:54,0.000,0.0,0.0,0.0
26/01/2022,02:27:55,0.000,0.0,0.0,0.0
26/01/2022,02:28:55,-0.000,0.0,0.0,0.0
26/01/2022,02:29:54,-0.000,0.0,0.0,0.0
26/01/2022,02:31:03,-0.001,0.0,0.0,0.0
26/01/2022,02:31:54,-0.001,0.0,0.0,0.0
26/01/2022,02:32:54,0.000,0.0,0.0,0.0
26/01/2022,02:33:54,-0.001,0.0,0.0,0.0
26/01/2022,02:34:54,0.000,0.0,0.0,0.0
26/01/2022,02:36:56,-0.000,0.0,0.0,0.0
26/01/2022,02:37:55,-0.001,0.0,0.0,0.0
26/01/2022,02:38:54,0.000,0.0,0.0,0.0
26/01/2022,02:39:54,-0.000,0.0,0.0,0.0
26/01/2022,02:40:55,0.000,0.0,0.0,0.0
26/01/2022,02:41:55,0.000,0.0,0.0,0.0
26/01/2022,02:42:54,-0.001,0.0,0.0,0.0
26/01/2022,02:44:03,0.000,0.0,0.0,0.0
26/01/2022,02:44:53,-0.001,0.0,0.0,0.0
26/01/2022,02:45:55,-0.001,0.0,0.0,0.0
26/01/2022,02:47:02,0.000,0.0,0.0,0.0
26/01/2022,02:47:54,0.000,0.0,0.0,0.0
26/01/2022,02:48:55,0.000,0.0,0.0,0.0
26/01/2022,02:49:55,-0.000,0.0,0.0,0.0
26/01/2022,02:50:55,0.000,0.0,0.0,0.0
26/01/2022,02:51:54,0.000,0.0,0.0,0.0
26/01/2022,02:52:54,-0.000,0.0,0.0,0.0
26/01/2022,02:53:55,-0.000,0.0,0.0,0.0
26/01/2022,02:54:55,-0.000,0.0,0.0,0.0
26/01/2022,02:55:55,-0.000,0.0,0.0,0.0
26/01/2022,02:56:54,0.000,0.0,0.0,0.0
26/01/2022,02:57:55,0.000,0.0,0.0,0.0
26/01/2022,02:58:55,0.000,0.0,0.0,0.0
26/01/2022,02:59:55,0.000,0.0,0.0,0.0
26/01/2022,03:00:54,-0.000,0.0,0.0,0.0
26/01/2022,03:01:55,0.000,0.0,0.0,0.0
26/01/2022,03:02:55,0.000,0.0,0.0,0.0
26/01/2022,03:03:55,-0.000,0.0,0.0,0.0
26/01/2022,03:04:55,0.000,0.0,0.0,0.0
26/01/2022,03:05:54,-0.000,0.0,0.0,0.0
26/01/2022,03:06:48,0.000,0.0,0.0,0.0
26/01/2022,03:07:56,0.000,0.0,0.0,0.0
26/01/2022,03:08:55,0.001,0.0,0.0,0.0
26/01/2022,03:09:54,0.001,0.0,0.0,0.0
26/01/2022,03:10:54,-0.000,0.0,0.0,0.0
26/01/2022,03:11:54,-0.000,0.0,0.0,0.0
26/01/2022,03:12:55,0.000,0.0,0.0,0.0
26/01/2022,03:13:54,0.001,0.0,0.0,0.0
26/01/2022,03:14:55,0.001,0.0,0.0,0.0
26/01/2022,03:15:54,-0.000,0.0,0.0,0.0
26/01/2022,03:16:55,-0.000,0.0,0.0,0.0
26/01/2022,03:18:03,0.000,0.0,0.0,0.0
26/01/2022,03:18:55,-0.001,0.0,0.0,0.0
26/01/2022,03:19:55,-0.001,0.0,0.0,0.0
26/01/2022,03:20:54,-0.000,0.0,0.0,0.0
26/01/2022,03:21:55,0.000,0.0,0.0,0.0
26/01/2022,03:22:54,0.001,0.0,0.0,0.0
26/01/2022,03:23:55,-0.000,0.0,0.0,0.0
26/01/2022,03:24:56,-0.001,0.0,0.0,0.0
26/01/2022,03:25:55,-0.000,0.0,0.0,0.0
26/01/2022,03:26:55,0.000,0.0,0.0,0.0
26/01/2022,03:27:54,-0.000,0.0,0.0,0.0
26/01/2022,03:28:54,0.000,0.0,0.0,0.0
26/01/2022,03:29:55,-0.000,0.0,0.0,0.0
26/01/2022,03:30:55,-0.000,0.0,0.0,0.0
26/01/2022,03:32:03,-0.000,0.0,0.0,0.0
26/01/2022,03:32:55,-0.000,0.0,0.0,0.0
26/01/2022,03:33:55,-0.001,0.0,0.0,0.0
26/01/2022,03:34:55,0.000,0.0,0.0,0.0
26/01/2022,03:35:54,-0.000,0.0,0.0,0.0
26/01/2022,03:36:55,0.000,0.0,0.0,0.0
26/01/2022,03:37:54,-0.000,0.0,0.0,0.0
26/01/2022,03:39:03,-0.000,0.0,0.0,0.0
26/01/2022,03:39:55,-0.000,0.0,0.0,0.0
26/01/2022,03:41:03,-0.000,0.0,0.0,0.0
26/01/2022,03:42:02,-0.000,0.0,0.0,0.0
26/01/2022,03:42:55,-0.001,0.0,0.0,0.0
26/01/2022,03:43:55,-0.000,0.0,0.0,0.0
26/01/2022,03:44:54,-0.000,0.0,0.0,0.0
26/01/2022,03:45:55,-0.000,0.0,0.0,0.0
26/01/2022,03:46:54,-0.001,0.0,0.0,0.0
26/01/2022,03:47:54,-0.000,0.0,0.0,0.0
26/01/2022,03:48:55,0.001,0.0,0.0,0.0
26/01/2022,03:49:54,-0.000,0.0,0.0,0.0
26/01/2022,03:50:55,-0.001,0.0,0.0,0.0
26/01/2022,03:52:03,-0.000,0.0,0.0,0.0
26/01/2022,03:52:54,-0.000,0.0,0.0,0.0
26/01/2022,03:53:55,-0.001,0.0,0.0,0.0
26/01/2022,03:55:03,-0.000,0.0,0.0,0.0
26/01/2022,03:55:55,-0.000,0.0,0.0,0.0
26/01/2022,03:56:55,0.001,0.0,0.0,0.0
26/01/2022,03:57:55,0.000,0.0,0.0,0.0
26/01/2022,03:58:54,-0.000,0.0,0.0,0.0
26/01/2022,03:59:54,-0.000,0.0,0.0,0.0
26/01/2022,04:00:55,-0.001,0.0,0.0,0.0
26/01/2022,04:01:54,-0.000,0.0,0.0,0.0
26/01/2022,04:02:55,-0.000,0.0,0.0,0.0
26/01/2022,04:03:55,-0.001,0.0,0.0,0.0
26/01/2022,04:05:03,-0.000,0.0,0.0,0.0
26/01/2022,04:05:56,-0.001,0.0,0.0,0.0
26/01/2022,04:06:55,-0.001,0.0,0.0,0.0
26/01/2022,04:07:54,0.000,0.0,0.0,0.0
26/01/2022,04:08:54,-0.000,0.0,0.0,0.0
26/01/2022,04:10:03,-0.000,0.0,0.0,0.0
26/01/2022,04:10:54,-0.000,0.0,0.0,0.0
26/01/2022,04:11:54,-0.001,0.0,0.0,0.0
26/01/2022,04:12:55,-0.000,0.0,0.0,0.0
26/01/2022,04:13:54,-0.000,0.0,0.0,0.0
26/01/2022,04:14:55,-0.000,0.0,0.0,0.0
26/01/2022,04:16:03,-0.000,0.0,0.0,0.0
26/01/2022,04:16:54,-0.000,0.0,0.0,0.0
26/01/2022,04:17:55,-0.000,0.0,0.0,0.0
26/01/2022,04:18:55,-0.000,0.0,0.0,0.0
26/01/2022,04:19:54,-0.001,0.0,0.0,0.0
26/01/2022,04:20:55,-0.000,0.0,0.0,0.0
26/01/2022,04:21:55,-0.000,0.0,0.0,0.0
26/01/2022,04:22:55,0.001,0.0,0.0,0.0
26/01/2022,04:23:54,-0.000,0.0,0.0,0.0
26/01/2022,04:24:55,0.000,0.0,0.0,0.0
26/01/2022,04:26:03,-0.000,0.0,0.0,0.0
26/01/2022,04:26:54,-0.000,0.0,0.0,0.0
26/01/2022,04:27:55,-0.000,0.0,0.0,0.0
26/01/2022,04:28:55,-0.000,0.0,0.0,0.0
26/01/2022,04:29:54,-0.000,0.0,0.0,0.0
26/01/2022,04:30:55,-0.000,0.0,0.0,0.0
26/01/2022,04:31:55,-0.000,0.0,0.0,0.0
26/01/2022,04:32:55,-0.000,0.0,0.0,0.0
26/01/2022,04:33:56,-0.000,0.0,0.0,0.0
26/01/2022,04:34:55,-0.000,0.0,0.0,0.0
26/01/2022,04:36:03,0.000,0.0,0.0,0.0
26/01/2022,04:36:54,-0.000,0.0,0.0,0.0
26/01/2022,04:37:55,-0.001,0.0,0.0,0.0
26/01/2022,04:38:55,-0.000,0.0,0.0,0.0
26/01/2022,04:39:56,-0.000,0.0,0.0,0.0
26/01/2022,04:40:55,-0.001,0.0,0.0,0.0
26/01/2022,04:41:55,-0.000,0.0,0.0,0.0
26/01/2022,04:42:55,-0.001,0.0,0.0,0.0
26/01/2022,04:43:55,-0.000,0.0,0.0,0.0
26/01/2022,04:44:55,-0.001,0.0,0.0,0.0
26/01/2022,04:46:03,-0.001,0.0,0.0,0.0
26/01/2022,04:46:55,-0.000,0.0,0.0,0.0
26/01/2022,04:47:55,0.000,0.0,0.0,0.0
26/01/2022,04:48:55,-0.000,0.0,0.0,0.0
26/01/2022,04:49:57,-0.001,0.0,0.0,0.0
26/01/2022,04:50:54,-0.001,0.0,0.0,0.0
26/01/2022,04:51:55,-0.000,0.0,0.0,0.0
26/01/2022,04:52:54,-0.000,0.0,0.0,0.0
26/01/2022,04:53:54,0.001,0.0,0.0,0.0
26/01/2022,04:54:55,0.001,0.0,0.0,0.0
26/01/2022,04:55:57,-0.000,0.0,0.0,0.0
26/01/2022,04:56:55,-0.000,0.0,0.0,0.0
26/01/2022,04:57:55,-0.001,0.0,0.0,0.0
26/01/2022,04:58:55,-0.001,0.0,0.0,0.0
26/01/2022,04:59:55,-0.000,0.0,0.0,0.0
26/01/2022,05:00:54,0.001,0.0,0.0,0.0
26/01/2022,05:01:55,-0.000,0.0,0.0,0.0
26/01/2022,05:02:55,0.000,0.0,0.0,0.0
26/01/2022,05:03:55,-0.000,0.0,0.0,0.0
26/01/2022,05:04:55,-0.001,0.0,0.0,0.0
26/01/2022,05:05:55,0.001,0.0,0.0,0.0
26/01/2022,05:06:54,-0.000,0.0,0.0,0.0
26/01/2022,05:07:55,-0.001,0.0,0.0,0.0
26/01/2022,05:08:55,-0.001,0.0,0.0,0.0
26/01/2022,05:10:03,-0.001,0.0,0.0,0.0
26/01/2022,05:10:55,0.001,0.0,0.0,0.0
26/01/2022,05:11:54,-0.001,0.0,0.0,0.0
26/01/2022,05:12:55,0.000,0.0,0.0,0.0
26/01/2022,05:13:55,0.000,0.0,0.0,0.0
26/01/2022,05:14:55,0.000,0.0,0.0,0.0
26/01/2022,05:15:55,-0.001,0.0,0.0,0.0
26/01/2022,05:16:55,-0.000,0.0,0.0,0.0
26/01/2022,05:17:55,-0.000,0.0,0.0,0.0
26/01/2022,05:18:55,-0.000,0.0,0.0,0.0
26/01/2022,05:20:03,-0.000,0.0,0.0,0.0
26/01/2022,05:20:55,-0.000,0.0,0.0,0.0
26/01/2022,05:21:55,0.000,0.0,0.0,0.0
26/01/2022,05:22:55,0.000,0.0,0.0,0.0
26/01/2022,05:23:55,-0.000,0.0,0.0,0.0
26/01/2022,05:24:54,-0.001,0.0,0.0,0.0
26/01/2022,05:25:55,0.000,0.0,0.0,0.0
26/01/2022,05:26:55,0.000,0.0,0.0,0.0
26/01/2022,05:27:55,-0.000,0.0,0.0,0.0
26/01/2022,05:28:54,0.000,0.0,0.0,0.0
26/01/2022,05:29:55,-0.000,0.0,0.0,0.0
26/01/2022,05:30:55,-0.001,0.0,0.0,0.0
26/01/2022,05:31:55,-0.000,0.0,0.0,0.0
26/01/2022,05:32:55,-0.000,0.0,0.0,0.0
26/01/2022,05:33:54,-0.000,0.0,0.0,0.0
26/01/2022,05:35:03,0.001,0.0,0.0,0.0
26/01/2022,05:35:54,-0.000,0.0,0.0,0.0
26/01/2022,05:36:54,0.000,0.0,0.0,0.0
26/01/2022,05:37:55,-0.000,0.0,0.0,0.0
26/01/2022,05:38:57,-0.000,0.0,0.0,0.0
26/01/2022,05:39:54,-0.001,0.0,0.0,0.0
26/01/2022,05:40:55,0.001,0.0,0.0,0.0
26/01/2022,05:41:55,0.001,0.0,0.0,0.0
26/01/2022,05:42:55,0.001,0.0,0.0,0.0
26/01/2022,05:44:03,-0.000,0.0,0.0,0.0
26/01/2022,05:44:54,-0.001,0.0,0.0,0.0
26/01/2022,05:45:55,-0.001,0.0,0.0,0.0
26/01/2022,05:46:55,-0.001,0.0,0.0,0.0
26/01/2022,05:47:55,-0.001,0.0,0.0,0.0
26/01/2022,05:48:55,-0.000,0.0,0.0,0.0
26/01/2022,05:49:55,-0.000,0.0,0.0,0.0
26/01/2022,05:50:55,0.000,0.0,0.0,0.0
26/01/2022,05:51:55,-0.001,0.0,0.0,0.0
26/01/2022,05:52:55,-0.000,0.0,0.0,0.0
26/01/2022,05:53:54,0.000,0.0,0.0,0.0
26/01/2022,05:54:55,-0.000,0.0,0.0,0.0
26/01/2022,05:55:55,-0.000,0.0,0.0,0.0
26/01/2022,05:56:55,0.000,0.0,0.0,0.0
26/01/2022,05:57:55,-0.001,0.0,0.0,0.0
26/01/2022,05:58:54,-0.000,0.0,0.0,0.0
26/01/2022,05:59:54,0.001,0.0,0.0,0.0
26/01/2022,06:00:55,-0.001,0.0,0.0,0.0
26/01/2022,06:01:55,-0.000,0.0,0.0,0.0
26/01/2022,06:02:55,-0.000,0.0,0.0,0.0
26/01/2022,06:03:46,-0.001,0.0,0.0,0.0
26/01/2022,06:04:56,-0.000,0.0,0.0,0.0
26/01/2022,06:05:55,-0.000,0.0,0.0,0.0
26/01/2022,06:06:54,-0.000,0.0,0.0,0.0
26/01/2022,06:07:55,-0.000,0.0,0.0,0.0
26/01/2022,06:08:55,-0.001,0.0,0.0,0.0
26/01/2022,06:09:55,-0.000,0.0,0.0,0.0
26/01/2022,06:10:54,-0.001,0.0,0.0,0.0
26/01/2022,06:11:55,-0.000,0.0,0.0,0.0
26/01/2022,06:12:55,-0.000,0.0,0.0,0.0
26/01/2022,06:13:56,-0.001,0.0,0.0,0.0
26/01/2022,06:14:55,0.001,0.0,0.0,0.0
26/01/2022,06:15:55,-0.000,0.0,0.0,0.0
26/01/2022,06:16:55,-0.000,0.0,0.0,0.0
26/01/2022,06:18:04,-0.000,0.0,0.0,0.0
26/01/2022,06:18:54,-0.000,0.0,0.0,0.0
26/01/2022,06:19:55,-0.001,0.0,0.0,0.0
26/01/2022,06:20:55,-0.000,0.0,0.0,0.0
26/01/2022,06:21:54,-0.000,0.0,0.0,0.0
26/01/2022,06:22:55,-0.000,0.0,0.0,0.0
26/01/2022,06:23:55,0.000,0.0,0.0,0.0
26/01/2022,06:24:55,-0.000,0.0,0.0,0.0
26/01/2022,06:25:55,0.000,0.0,0.0,0.0
26/01/2022,06:26:55,-0.000,0.0,0.0,0.0
26/01/2022,06:28:47,0.000,0.0,0.0,0.0
26/01/2022,06:29:55,-0.001,0.0,0.0,0.0
26/01/2022,06:30:55,-0.000,0.0,0.0,0.0
26/01/2022,06:31:55,-0.000,0.0,0.0,0.0
26/01/2022,06:32:55,-0.000,0.0,0.0,0.0
26/01/2022,06:33:55,-0.001,0.0,0.0,0.0
26/01/2022,06:34:55,-0.000,0.0,0.0,0.0
26/01/2022,06:35:55,-0.001,0.0,0.0,0.0
26/01/2022,06:36:55,-0.000,0.0,0.0,0.0
26/01/2022,06:38:03,-0.000,0.0,0.0,0.0
26/01/2022,06:38:54,-0.000,0.0,0.0,0.0
26/01/2022,06:39:56,-0.000,0.0,0.0,0.0
26/01/2022,06:40:54,-0.000,0.0,0.0,0.0
26/01/2022,06:41:55,-0.000,0.0,0.0,0.0
26/01/2022,06:42:55,-0.001,0.0,0.0,0.0
26/01/2022,06:43:54,-0.002,0.0,0.0,0.0
26/01/2022,06:44:56,-0.000,0.0,0.0,0.0
26/01/2022,06:46:11,-0.001,0.0,0.0,0.0
26/01/2022,06:47:56,-0.000,0.0,0.0,0.0
26/01/2022,06:48:54,-0.001,0.0,0.0,0.0
26/01/2022,06:49:55,-0.000,0.0,0.0,0.0
26/01/2022,06:50:55,-0.000,0.0,0.0,0.0
26/01/2022,06:52:03,-0.001,0.0,0.0,0.0
26/01/2022,06:52:55,-0.000,0.0,0.0,0.0
26/01/2022,06:53:55,-0.000,0.0,0.0,0.0
26/01/2022,06:54:54,-0.000,0.0,0.0,0.0
26/01/2022,06:55:55,-0.001,0.0,0.0,0.0
26/01/2022,06:56:55,0.001,0.0,0.0,0.0
26/01/2022,06:57:55,-0.000,0.0,0.0,0.0
26/01/2022,06:58:55,-0.000,0.0,0.0,0.0
26/01/2022,06:59:55,-0.000,0.0,0.0,0.0
26/01/2022,07:00:54,-0.000,0.0,0.0,0.0
26/01/2022,07:02:04,0.000,0.0,0.0,0.0
26/01/2022,07:03:03,0.000,0.0,0.0,0.0
26/01/2022,07:03:55,-0.000,0.0,0.0,0.0
26/01/2022,07:04:55,-0.000,0.0,0.0,0.0
26/01/2022,07:05:55,-0.000,0.0,0.0,0.0
26/01/2022,07:06:55,-0.001,0.0,0.0,0.0
26/01/2022,07:07:55,0.000,0.0,0.0,0.0
26/01/2022,07:08:55,-0.000,0.0,0.0,0.0
26/01/2022,07:09:55,-0.000,0.0,0.0,0.0
26/01/2022,07:10:55,-0.000,0.0,0.0,0.0
26/01/2022,07:11:55,-0.001,0.0,0.0,0.0
26/01/2022,07:12:55,0.000,0.0,0.0,0.0
26/01/2022,07:13:55,-0.001,0.0,0.0,0.0
26/01/2022,07:14:55,0.000,0.0,0.0,0.0
26/01/2022,07:15:55,-0.000,0.0,0.0,0.0
26/01/2022,07:16:55,-0.000,0.0,0.0,0.0
26/01/2022,07:17:55,-0.000,0.0,0.0,0.0
26/01/2022,07:18:55,-0.000,0.0,0.0,0.0
26/01/2022,07:19:55,0.000,0.0,0.0,0.0
26/01/2022,07:20:55,-0.000,0.0,0.0,0.0
26/01/2022,07:22:03,0.000,0.0,0.0,0.0
26/01/2022,07:22:55,-0.000,0.0,0.0,0.0
26/01/2022,07:23:55,-0.001,0.0,0.0,0.0
26/01/2022,07:24:55,-0.000,0.0,0.0,0.0
26/01/2022,07:26:03,-0.000,0.0,0.0,0.0
26/01/2022,07:26:55,-0.000,0.0,0.0,0.0
26/01/2022,07:27:55,-0.001,0.0,0.0,0.0
26/01/2022,07:28:55,-0.001,0.0,0.0,0.0
26/01/2022,07:29:55,-0.001,0.0,0.0,0.0
26/01/2022,07:30:55,0.000,0.0,0.0,0.0
26/01/2022,07:31:55,-0.000,0.0,0.0,0.0
26/01/2022,07:32:55,-0.000,0.0,0.0,0.0
26/01/2022,07:33:54,-0.000,0.0,0.0,0.0
26/01/2022,07:34:55,-0.000,0.0,0.0,0.0
26/01/2022,07:36:03,-0.001,0.0,0.0,0.0
26/01/2022,07:36:55,-0.000,0.0,0.0,0.0
26/01/2022,07:37:55,0.000,0.0,0.0,0.0
26/01/2022,07:38:55,-0.000,0.0,0.0,0.0
26/01/2022,07:39:54,-0.000,0.0,0.0,0.0
26/01/2022,07:40:55,0.000,0.0,0.0,0.0
26/01/2022,07:41:55,-0.001,0.0,0.0,0.0
26/01/2022,07:42:55,0.000,0.0,0.0,0.0
26/01/2022,07:43:55,-0.001,0.0,0.0,0.0
26/01/2022,07:44:55,-0.001,0.0,0.0,0.0
26/01/2022,07:46:03,-0.000,0.0,0.0,0.0
26/01/2022,07:47:03,0.001,0.0,0.0,0.0
26/01/2022,07:47:55,0.000,0.0,0.0,0.0
26/01/2022,07:48:56,-0.000,0.0,0.0,0.0
26/01/2022,07:49:54,0.000,0.0,0.0,0.0
26/01/2022,07:50:55,-0.000,0.0,0.0,0.0
26/01/2022,07:51:55,0.000,0.0,0.0,0.0
26/01/2022,07:52:55,0.001,0.0,0.0,0.0
26/01/2022,07:54:04,0.000,0.0,0.0,0.0
26/01/2022,07:54:55,0.000,0.0,0.0,0.0
26/01/2022,07:55:55,0.001,0.0,0.0,0.0
26/01/2022,07:57:04,0.001,0.0,0.0,0.0
26/01/2022,07:57:55,0.001,0.0,0.0,0.0
26/01/2022,07:58:55,0.001,0.0,0.0,0.0
26/01/2022,08:00:03,0.001,0.0,0.0,0.0
26/01/2022,08:00:55,0.001,0.0,0.0,0.0
26/01/2022,08:01:55,0.002,0.0,0.0,0.0
26/01/2022,08:02:56,0.001,0.0,0.0,0.0
26/01/2022,08:03:56,0.001,0.0,0.0,0.0
26/01/2022,08:04:55,0.001,0.0,0.0,0.0
26/01/2022,08:05:59,0.002,0.0,0.0,0.0
26/01/2022,08:07:03,0.001,0.0,0.0,0.0
26/01/2022,08:07:55,0.002,0.0,0.0,0.0
26/01/2022,08:08:55,0.002,0.0,0.0,0.0
26/01/2022,08:09:56,0.002,0.0,0.0,0.0
26/01/2022,08:10:55,0.002,0.0,0.0,0.0
26/01/2022,08:11:55,0.001,0.0,0.0,0.0
26/01/2022,08:12:55,0.002,0.0,0.0,0.0
26/01/2022,08:13:56,0.002,0.0,0.0,0.0
26/01/2022,08:14:55,0.002,0.0,0.0,0.0
26/01/2022,08:15:55,0.003,0.0,0.0,0.0
26/01/2022,08:16:55,0.003,0.0,0.0,0.0
26/01/2022,08:17:56,0.003,0.0,0.0,0.0
26/01/2022,08:18:55,0.003,0.0,0.0,0.0
26/01/2022,08:19:55,0.003,0.0,0.0,0.0
26/01/2022,08:20:55,0.003,0.0,0.0,0.0
26/01/2022,08:21:56,0.003,0.0,0.0,0.0
26/01/2022,08:22:55,0.004,0.0,0.0,0.0
26/01/2022,08:23:55,0.005,0.0,0.0,0.0
26/01/2022,08:25:03,0.005,0.0,0.0,0.0
26/01/2022,08:25:55,0.005,0.0,0.0,0.0
26/01/2022,08:26:57,0.006,0.0,0.0,0.0
26/01/2022,08:28:03,0.006,0.0,0.0,0.0
26/01/2022,08:28:55,0.007,0.0,0.0,0.0
26/01/2022,08:29:55,0.007,0.0,0.0,0.0
26/01/2022,08:31:04,0.007,0.0,0.0,0.0
26/01/2022,08:31:55,0.007,0.0,0.001,0.001
26/01/2022,08:32:56,0.007,0.0,0.001,0.0
26/01/2022,08:33:55,0.008,0.0,0.001,0.0
26/01/2022,08:34:55,0.009,0.0,0.001,0.0
26/01/2022,08:35:55,0.009,0.0,0.001,0.0
26/01/2022,08:37:48,0.010,0.0,0.001,0.0
26/01/2022,08:38:56,0.011,0.0,0.001,0.0
26/01/2022,08:39:55,0.011,0.0,0.002,0.001
26/01/2022,08:40:55,0.012,0.0,0.002,0.0
26/01/2022,08:41:56,0.013,0.0,0.002,0.0
26/01/2022,08:42:55,0.015,0.0,0.002,0.0
26/01/2022,08:43:55,0.015,0.0,0.003,0.001
26/01/2022,08:44:56,0.015,0.0,0.003,0.0
26/01/2022,08:45:55,0.016,0.0,0.003,0.0
26/01/2022,08:46:55,0.016,0.0,0.003,0.0
26/01/2022,08:47:55,0.015,0.0,0.004,0.001
26/01/2022,08:49:03,0.016,0.0,0.004,0.0
26/01/2022,08:49:55,0.016,0.0,0.004,0.0
26/01/2022,08:50:56,0.017,0.0,0.004,0.0
26/01/2022,08:51:56,0.017,0.0,0.005,0.001
26/01/2022,08:52:55,0.019,0.0,0.005,0.0
26/01/2022,08:53:56,0.019,0.0,0.005,0.0
26/01/2022,08:54:55,0.019,0.0,0.006,0.001
26/01/2022,08:56:03,0.021,0.0,0.006,0.0
26/01/2022,08:56:55,0.021,0.0,0.006,0.0
26/01/2022,08:57:55,0.023,0.0,0.007,0.001
26/01/2022,08:59:03,0.023,0.0,0.007,0.0
26/01/2022,08:59:56,0.024,0.0,0.007,0.0
26/01/2022,09:00:55,0.025,0.0,0.008,0.001
26/01/2022,09:02:04,0.026,0.0,0.008,0.0
26/01/2022,09:02:56,0.027,0.0,0.009,0.001
26/01/2022,09:03:58,0.029,0.0,0.009,-0.0
26/01/2022,09:04:55,0.030,0.0,0.01,0.001
26/01/2022,09:05:55,0.030,0.0,0.01,0.0
26/01/2022,09:06:55,0.031,0.0,0.011,0.001
26/01/2022,09:07:54,0.033,0.0,0.011,-0.0
26/01/2022,09:08:56,0.034,0.0,0.012,0.001
26/01/2022,09:09:55,0.035,0.0,0.012,0.0
26/01/2022,09:10:55,0.037,0.0,0.013,0.001
26/01/2022,09:11:55,0.037,0.0,0.014,0.001
26/01/2022,09:13:03,0.039,0.0,0.014,0.0
26/01/2022,09:13:55,0.040,0.0,0.015,0.001
26/01/2022,09:14:55,0.042,0.0,0.016,0.001
26/01/2022,09:15:55,0.044,0.0,0.016,0.0
26/01/2022,09:16:55,0.045,0.0,0.017,0.001
26/01/2022,09:17:55,0.046,0.0,0.018,0.001
26/01/2022,09:18:56,0.046,0.0,0.019,0.001
26/01/2022,09:19:56,0.049,0.0,0.019,0.0
26/01/2022,09:20:55,0.050,0.0,0.02,0.001
26/01/2022,09:21:55,0.052,0.0,0.021,0.001
26/01/2022,09:23:04,0.053,0.0,0.022,0.001
26/01/2022,09:23:55,0.054,0.0,0.023,0.001
26/01/2022,09:24:55,0.056,0.0,0.024,0.001
26/01/2022,09:26:02,0.057,0.0,0.025,0.001
26/01/2022,09:26:55,0.058,0.0,0.026,0.001
26/01/2022,09:27:56,0.059,0.0,0.027,0.001
26/01/2022,09:28:55,0.060,0.0,0.027,-0.0
26/01/2022,09:29:55,0.061,0.0,0.029,0.002
26/01/2022,09:30:55,0.062,0.0,0.03,0.001
26/01/2022,09:31:55,0.062,0.0,0.031,0.001
26/01/2022,09:33:04,0.065,0.0,0.032,0.001
26/01/2022,09:33:54,0.064,0.0,0.033,0.001
26/01/2022,09:34:55,0.065,0.0,0.034,0.001
26/01/2022,09:35:56,0.066,0.0,0.035,0.001
26/01/2022,09:36:55,0.067,0.0,0.036,0.001
26/01/2022,09:37:55,0.069,0.0,0.037,0.001
26/01/2022,09:39:03,0.070,0.0,0.038,0.001
26/01/2022,09:39:55,0.070,0.0,0.039,0.001
26/01/2022,09:40:57,0.072,0.0,0.041,0.002
26/01/2022,09:41:55,0.074,0.0,0.042,0.001
26/01/2022,09:42:55,0.075,0.0,0.043,0.001
26/01/2022,09:43:56,0.077,0.0,0.044,0.001
26/01/2022,09:44:55,0.078,0.0,0.046,0.002
26/01/2022,09:45:55,0.079,0.0,0.047,0.001
26/01/2022,09:47:04,0.080,0.0,0.048,0.001
26/01/2022,09:47:55,0.081,0.0,0.05,0.002
26/01/2022,09:48:55,0.080,0.0,0.051,0.001
26/01/2022,09:50:04,0.080,0.0,0.052,0.001
26/01/2022,09:51:56,0.078,0.0,0.055,0.003
26/01/2022,09:52:55,0.078,0.0,0.056,0.001
26/01/2022,09:53:56,0.078,0.0,0.057,0.001
26/01/2022,09:54:55,0.081,0.0,0.059,0.002
26/01/2022,09:55:55,0.079,0.0,0.06,0.001
26/01/2022,09:56:55,0.080,0.0,0.061,0.001
26/01/2022,09:57:55,0.080,0.0,0.063,0.002
26/01/2022,09:58:55,0.080,0.0,0.064,0.001
26/01/2022,10:00:04,0.078,0.0,0.066,0.002
26/01/2022,10:01:04,0.077,0.0,0.067,0.001
26/01/2022,10:01:55,0.076,0.0,0.068,0.001
26/01/2022,10:02:58,0.074,0.0,0.069,0.001
26/01/2022,10:03:57,0.072,0.0,0.071,0.002
26/01/2022,10:05:56,0.070,0.0,0.073,0.002
26/01/2022,10:06:56,0.070,0.0,0.074,0.001
26/01/2022,10:08:04,0.069,0.0,0.075,0.001
26/01/2022,10:09:56,0.069,0.0,0.077,0.002
26/01/2022,10:11:03,0.068,0.0,0.079,0.002
26/01/2022,10:11:55,0.066,0.0,0.08,0.001
26/01/2022,10:12:57,0.065,0.0,0.081,0.001
26/01/2022,10:13:56,0.064,0.0,0.082,0.001
26/01/2022,10:14:55,0.063,0.0,0.083,0.001
26/01/2022,10:15:55,0.063,0.0,0.084,0.001
26/01/2022,10:16:55,0.065,0.0,0.085,0.001
26/01/2022,10:17:55,0.064,0.0,0.086,0.001
26/01/2022,10:18:56,0.065,0.0,0.087,0.001
26/01/2022,10:19:55,0.066,0.0,0.088,0.001
26/01/2022,10:21:03,0.068,0.0,0.09,0.002
26/01/2022,10:21:56,0.070,0.0,0.091,0.001
26/01/2022,10:22:55,0.071,0.0,0.092,0.001
26/01/2022,10:23:47,0.071,0.0,0.093,0.001